Location: Christianberg
(48.9086°N, 14.0209°E)
Time: 22:32:07
(UTC+00:00)

Cosmos 2098 Rocket - Pass Details

Date: 20 June 2021
Orbit: 366 x 1176 km, 82.9° (Epoch: 04 August)

Event Time Altitude Azimuth Distance (km) Brightness Sun altitude
Exits shadow 01:13:43 16° 221° (SW) 1,978 5.0 -12.2°
Maximum altitude 01:17:29 39° 283° (WNW) 1,070 4.1 -11.9°
Drops below altitude 10° 01:21:37 10° 353° (N) 1,972 6.5 -11.5°
Sets 01:23:43 0° 2° (N) 2,762 7.5 -11.4°
